| time (UTC) | temp C | wind direction | speed KPH | gust KPH | rain 1hr cm | rain 24hr cm | rain mn cm | humidity % | barometer mb |
| 20260906195540 | 25 | 95 | 8.0 | 33.8 | 0.00 | 0.00 | 0.00 | 71 | 1014.2 |
| 20260906195036 | 25 | 110 | 17.7 | 27.4 | 0.00 | 0.00 | 0.00 | 72 | 1014.2 |
| 20260906194532 | 25 | 126 | 24.1 | 37.0 | 0.00 | 0.00 | 0.00 | 71 | 1014.3 |
| 20260906194028 | 25 | 134 | 19.3 | 29.0 | 0.00 | 0.00 | 0.00 | 72 | 1014.3 |
| 20260906193527 | 25 | 128 | 25.7 | 27.4 | 0.00 | 0.00 | 0.00 | 72 | 1014.5 |
| 20260906193023 | 25 | 139 | 14.5 | 25.7 | 0.00 | 0.00 | 0.00 | 73 | 1014.7 |
| 20260906192518 | 25 | 136 | 11.3 | 17.7 | 0.00 | 0.00 | 0.00 | 74 | 1015.0 |
| 20260906192017 | 24 | 153 | 17.7 | 25.7 | 0.00 | 0.00 | 0.00 | 72 | 1015.0 |
| 20260906191512 | 24 | 133 | 16.1 | 20.9 | 0.00 | 0.00 | 0.00 | 74 | 1015.3 |
| 20260906191011 | 24 | 139 | 8.0 | 17.7 | 0.00 | 0.00 | 0.00 | 75 | 1015.5 |
| 20260906190511 | 24 | 144 | 14.5 | 19.3 | 0.00 | 0.00 | 0.00 | 75 | 1015.9 |
| 20260906190006 | 24 | 149 | 8.0 | 14.5 | 0.00 | 0.00 | 0.00 | 78 | 1015.9 |
| 20260906185504 | 23 | 144 | 12.9 | 19.3 | 0.00 | 0.00 | 0.00 | 76 | 1016.2 |
| 20260906185003 | 23 | 146 | 4.8 | 12.9 | 0.00 | 0.00 | 0.00 | 78 | 1016.1 |
| 20260906184459 | 24 | 155 | 9.7 | 17.7 | 0.00 | 0.00 | 0.00 | 75 | 1016.2 |
| 20260906183954 | 24 | 157 | 6.4 | 17.7 | 0.00 | 0.00 | 0.00 | 74 | 1016.3 |
| 20260906183450 | 25 | 121 | 4.8 | 4.8 | 0.00 | 0.00 | 0.00 | 72 | 1016.2 |
| 20260906182946 | 25 | 279 | 8.0 | 14.5 | 0.00 | 0.00 | 0.00 | 71 | 1016.5 |
| 20260906182441 | 24 | 314 | 6.4 | 6.4 | 0.00 | 0.00 | 0.00 | 72 | 1016.5 |
| 20260906181937 | 24 | 265 | 3.2 | 3.2 | 0.00 | 0.00 | 0.00 | 76 | 1016.1 |
| 20260906181433 | 24 | 204 | 3.2 | 4.8 | 0.00 | 0.00 | 0.00 | 75 | 1016.5 |
| 20260906180928 | 24 | 276 | 3.2 | 6.4 | 0.00 | 0.00 | 0.00 | 74 | 1016.8 |
| 20260906180423 | 24 | 260 | 1.6 | 6.4 | 0.00 | 0.00 | 0.00 | 75 | 1017.1 |
| 20260906175921 | 24 | 323 | 6.4 | 14.5 | 0.00 | 0.00 | 0.00 | 74 | 1017.3 |
| 20260906175416 | 23 | 220 | 4.8 | 12.9 | 0.00 | 0.00 | 0.00 | 77 | 1017.4 |
| 20260906174914 | 23 | 263 | 4.8 | 4.8 | 0.00 | 0.00 | 0.00 | 78 | 1017.7 |
| 20260906174414 | 23 | 292 | 4.8 | 8.0 | 0.00 | 0.00 | 0.00 | 80 | 1017.6 |
| 20260906173909 | 23 | 233 | 0.0 | 9.7 | 0.00 | 0.00 | 0.00 | 80 | 1017.8 |
| 20260906173404 | 23 | 244 | 3.2 | 6.4 | 0.00 | 0.00 | 0.00 | 81 | 1018.0 |
| 20260906172903 | 23 | 317 | 3.2 | 3.2 | 0.00 | 0.00 | 0.00 | 83 | 1018.1 |
| 20260906172400 | 23 | 8 | 3.2 | 6.4 | 0.00 | 0.00 | 0.00 | 84 | 1018.4 |
| 20260906171854 | 22 | 209 | 3.2 | 6.4 | 0.00 | 0.00 | 0.00 | 84 | 1018.7 |
| 20260906171349 | 22 | 149 | 1.6 | 6.4 | 0.00 | 0.00 | 0.00 | 84 | 1018.5 |
| 20260906170845 | 22 | 299 | 0.0 | 3.2 | 0.00 | 0.00 | 0.00 | 85 | 1018.2 |
| 20260906170341 | 22 | 227 | 3.2 | 8.0 | 0.00 | 0.00 | 0.00 | 85 | 1018.2 |
| 20260906165837 | 23 | 258 | 3.2 | 4.8 | 0.00 | 0.00 | 0.00 | 85 | 1018.2 |
| 20260906165336 | 23 | 254 | 3.2 | 6.4 | 0.00 | 0.00 | 0.00 | 85 | 1018.3 |
| 20260906164831 | 23 | 231 | 3.2 | 9.7 | 0.00 | 0.00 | 0.00 | 85 | 1018.4 |
| 20260906164330 | 23 | 271 | 3.2 | 9.7 | 0.00 | 0.00 | 0.00 | 86 | 1018.3 |
| 20260906163827 | 23 | 345 | 1.6 | 6.4 | 0.00 | 0.00 | 0.00 | 87 | 1018.1 |
| 20260906163323 | 23 | 200 | 4.8 | 4.8 | 0.00 | 0.00 | 0.00 | 87 | 1018.3 |
| 20260906162820 | 23 | 330 | 3.2 | 6.4 | 0.00 | 0.00 | 0.00 | 86 | 1018.3 |
| 20260906162319 | 23 | 259 | 3.2 | 3.2 | 0.00 | 0.00 | 0.00 | 85 | 1018.5 |
| 20260906161814 | 23 | 15 | 3.2 | 4.8 | 0.00 | 0.00 | 0.00 | 85 | 1018.3 |
| 20260906161314 | 23 | 276 | 1.6 | 8.0 | 0.00 | 0.00 | 0.00 | 85 | 1017.9 |
| 20260906160813 | 23 | 153 | 3.2 | 11.3 | 0.00 | 0.00 | 0.00 | 85 | 1017.6 |
| 20260906160307 | 23 | 149 | 8.0 | 9.7 | 0.00 | 0.00 | 0.00 | 83 | 1016.8 |
| 20260906155805 | 23 | 144 | 6.4 | 8.0 | 0.00 | 0.00 | 0.00 | 84 | 1016.7 |
| 20260906155259 | 23 | 145 | 8.0 | 9.7 | 0.00 | 0.00 | 0.00 | 83 | 1017.1 |
| 20260906154755 | 23 | 113 | 3.2 | 6.4 | 0.00 | 0.00 | 0.00 | 82 | 1016.6 |
| 20260906154250 | 23 | 227 | 0.0 | 4.8 | 0.00 | 0.00 | 0.00 | 82 | 1016.5 |
| 20260906153748 | 23 | 187 | 1.6 | 4.8 | 0.00 | 0.00 | 0.00 | 82 | 1016.5 |
| 20260906153243 | 23 | 108 | 0.0 | 4.8 | 0.00 | 0.00 | 0.00 | 82 | 1016.7 |
| 20260906152738 | 23 | 182 | 3.2 | 3.2 | 0.00 | 0.00 | 0.00 | 84 | 1016.7 |
| 20260906152232 | 23 | 117 | 0.0 | 6.4 | 0.00 | 0.00 | 0.00 | 84 | 1016.9 |
| 20260906151732 | 23 | 188 | 4.8 | 6.4 | 0.00 | 0.00 | 0.00 | 82 | 1016.6 |
| 20260906151228 | 23 | 39 | 0.0 | 4.8 | 0.00 | 0.00 | 0.00 | 83 | 1016.5 |
| 20260906150723 | 23 | 245 | 1.6 | 6.4 | 0.00 | 0.00 | 0.00 | 82 | 1016.8 |
| 20260906150218 | 23 | 252 | 4.8 | 8.0 | 0.00 | 0.00 | 0.00 | 82 | 1016.8 |
| 20260906145717 | 23 | 247 | 4.8 | 9.7 | 0.00 | 0.00 | 0.00 | 83 | 1017.2 |
| 20260906145217 | 23 | 261 | 8.0 | 14.5 | 0.00 | 0.00 | 0.00 | 84 | 1017.1 |
| 20260906144712 | 23 | 271 | 9.7 | 16.1 | 0.00 | 0.00 | 0.00 | 91 | 1016.6 |
| 20260906144207 | 24 | 166 | 1.6 | 4.8 | 0.00 | 0.00 | 0.00 | 96 | 1016.8 |
| 20260906143706 | 24 | 311 | 1.6 | 6.4 | 0.00 | 0.00 | 0.00 | 96 | 1016.6 |
| 20260906143204 | 24 | 2 | 3.2 | 4.8 | 0.00 | 0.00 | 0.00 | 96 | 1016.6 |
| 20260906142658 | 23 | 0 | 0.0 | 4.8 | 0.00 | 0.00 | 0.00 | 96 | 1016.2 |
| 20260906142153 | 23 | 4 | 3.2 | 6.4 | 0.00 | 0.00 | 0.00 | 97 | 1016.1 |
| 20260906141651 | 23 | 341 | 3.2 | 6.4 | 0.00 | 0.00 | 0.00 | 97 | 1016.3 |
| 20260906141147 | 23 | 198 | 3.2 | 9.7 | 0.00 | 0.00 | 0.00 | 97 | 1016.2 |
| 20260906140646 | 23 | 148 | 6.4 | 9.7 | 0.00 | 0.00 | 0.00 | 97 | 1016.0 |
| 20260906140141 | 23 | 145 | 4.8 | 6.4 | 0.00 | 0.00 | 0.00 | 97 | 1015.8 |
| 20260906135637 | 23 | 133 | 6.4 | 8.0 | 0.00 | 0.00 | 0.00 | 97 | 1015.8 |
| 20260906135134 | 23 | 172 | 3.2 | 4.8 | 0.00 | 0.00 | 0.00 | 97 | 1015.5 |
| 20260906134629 | 23 | 143 | 4.8 | 6.4 | 0.00 | 0.00 | 0.00 | 97 | 1015.5 |
| 20260906134124 | 23 | 144 | 8.0 | 8.0 | 0.00 | 0.00 | 0.00 | 97 | 1015.4 |
| 20260906133620 | 23 | 156 | 4.8 | 6.4 | 0.00 | 0.00 | 0.00 | 97 | 1015.5 |
| 20260906133115 | 23 | 146 | 9.7 | 11.3 | 0.00 | 0.00 | 0.00 | 97 | 1015.7 |
| 20260906132610 | 23 | 130 | 11.3 | 12.9 | 0.00 | 0.00 | 0.00 | 97 | 1015.7 |
| 20260906132105 | 23 | 146 | 6.4 | 9.7 | 0.00 | 0.00 | 0.00 | 97 | 1015.8 |
| 20260906131600 | 23 | 177 | 6.4 | 6.4 | 0.00 | 0.00 | 0.00 | 97 | 1015.7 |
| 20260906131056 | 23 | 143 | 11.3 | 12.9 | 0.00 | 0.00 | 0.00 | 98 | 1015.8 |
| 20260906130550 | 23 | 195 | 6.4 | 16.1 | 0.00 | 0.00 | 0.00 | 97 | 1015.7 |
| 20260906130045 | 23 | 170 | 8.0 | 17.7 | 0.00 | 0.00 | 0.00 | 97 | 1015.8 |
| 20260906125542 | 23 | 140 | 19.3 | 24.1 | 0.00 | 0.00 | 0.00 | 97 | 1015.5 |
| 20260906125037 | 23 | 152 | 8.0 | 17.7 | 0.00 | 0.00 | 0.00 | 97 | 1015.2 |
| 20260906124532 | 23 | 151 | 12.9 | 22.5 | 0.00 | 0.00 | 0.00 | 97 | 1015.3 |
| 20260906124027 | 23 | 153 | 16.1 | 19.3 | 0.00 | 0.00 | 0.00 | 97 | 1015.0 |
| 20260906123526 | 23 | 135 | 12.9 | 17.7 | 0.00 | 0.00 | 0.00 | 97 | 1015.5 |
| 20260906123021 | 23 | 144 | 9.7 | 19.3 | 0.00 | 0.00 | 0.00 | 97 | 1015.1 |
| 20260906122515 | 23 | 175 | 11.3 | 20.9 | 0.00 | 0.00 | 0.00 | 97 | 1014.8 |
| 20260906122012 | 23 | 143 | 17.7 | 22.5 | 0.00 | 0.00 | 0.00 | 97 | 1014.8 |
| 20260906121508 | 23 | 136 | 14.5 | 19.3 | 0.00 | 0.00 | 0.00 | 97 | 1014.7 |
| 20260906121004 | 23 | 144 | 9.7 | 17.7 | 0.00 | 0.00 | 0.00 | 97 | 1014.5 |
| 20260906120503 | 23 | 136 | 14.5 | 16.1 | 0.00 | 0.00 | 0.00 | 97 | 1014.5 |
| 20260906120000 | 23 | 135 | 14.5 | 19.3 | 0.00 | 0.00 | 0.00 | 97 | 1014.3 |
| 20260906115455 | 23 | 131 | 14.5 | 19.3 | 0.00 | 0.00 | 0.00 | 98 | 1014.5 |
| 20260906114950 | 23 | 134 | 11.3 | 16.1 | 0.00 | 0.00 | 0.00 | 98 | 1014.5 |
| 20260906114445 | 23 | 143 | 9.7 | 14.5 | 0.00 | 0.00 | 0.00 | 98 | 1014.3 |
| 20260906113941 | 23 | 141 | 12.9 | 17.7 | 0.00 | 0.00 | 0.00 | 98 | 1014.3 |
| 20260906113439 | 23 | 139 | 9.7 | 17.7 | 0.00 | 0.00 | 0.00 | 98 | 1014.1 |
| 20260906112935 | 23 | 135 | 14.5 | 17.7 | 0.00 | 0.00 | 0.00 | 98 | 1013.9 |
| 20260906112430 | 23 | 140 | 11.3 | 20.9 | 0.00 | 0.00 | 0.00 | 98 | 1014.0 |
| 20260906111926 | 23 | 139 | 11.3 | 14.5 | 0.00 | 0.00 | 0.00 | 98 | 1014.1 |
| 20260906111425 | 23 | 143 | 14.5 | 17.7 | 0.00 | 0.00 | 0.00 | 98 | 1014.1 |
| 20260906110920 | 23 | 160 | 6.4 | 11.3 | 0.00 | 0.00 | 0.00 | 98 | 1014.0 |
| 20260906110416 | 23 | 146 | 6.4 | 11.3 | 0.00 | 0.00 | 0.00 | 98 | 1014.2 |
| 20260906105915 | 23 | 136 | 9.7 | 17.7 | 0.00 | 0.00 | 0.00 | 98 | 1013.9 |
| 20260906105410 | 23 | 154 | 6.4 | 17.7 | 0.00 | 0.00 | 0.00 | 97 | 1014.0 |
| 20260906104906 | 23 | 145 | 9.7 | 14.5 | 0.00 | 0.00 | 0.00 | 97 | 1014.1 |
| 20260906104404 | 23 | 134 | 9.7 | 14.5 | 0.00 | 0.00 | 0.00 | 97 | 1014.0 |
| 20260906103903 | 23 | 143 | 6.4 | 12.9 | 0.00 | 0.00 | 0.00 | 97 | 1014.1 |
| 20260906103401 | 23 | 149 | 9.7 | 19.3 | 0.00 | 0.00 | 0.00 | 97 | 1014.2 |
| 20260906102857 | 23 | 144 | 8.0 | 19.3 | 0.00 | 0.00 | 0.00 | 97 | 1014.2 |
| 20260906102357 | 23 | 140 | 9.7 | 14.5 | 0.00 | 0.00 | 0.00 | 97 | 1014.2 |
| 20260906101851 | 23 | 153 | 9.7 | 12.9 | 0.00 | 0.00 | 0.00 | 96 | 1014.5 |
| 20260906101347 | 24 | 140 | 9.7 | 16.1 | 0.00 | 0.00 | 0.00 | 96 | 1014.5 |
| 20260906100842 | 23 | 138 | 9.7 | 14.5 | 0.00 | 0.00 | 0.00 | 96 | 1014.3 |
| 20260906100341 | 24 | 145 | 11.3 | 12.9 | 0.00 | 0.00 | 0.00 | 96 | 1014.3 |
| 20260906095837 | 24 | 131 | 9.7 | 16.1 | 0.00 | 0.00 | 0.00 | 96 | 1014.2 |
| 20260906095332 | 24 | 153 | 8.0 | 11.3 | 0.00 | 0.00 | 0.00 | 96 | 1014.0 |
| 20260906094831 | 24 | 138 | 17.7 | 17.7 | 0.00 | 0.00 | 0.00 | 95 | 1013.9 |
| 20260906094326 | 24 | 145 | 9.7 | 20.9 | 0.00 | 0.00 | 0.00 | 95 | 1014.1 |
| 20260906093823 | 24 | 135 | 20.9 | 24.1 | 0.00 | 0.00 | 0.00 | 95 | 1013.8 |
| 20260906093318 | 24 | 149 | 14.5 | 25.7 | 0.00 | 0.00 | 0.00 | 94 | 1013.7 |
| 20260906092808 | 24 | 148 | 19.3 | 19.3 | 0.00 | 0.00 | 0.00 | 94 | 1013.9 |
| 20260906092307 | 24 | 144 | 17.7 | 22.5 | 0.00 | 0.00 | 0.00 | 94 | 1013.9 |
| 20260906091803 | 24 | 139 | 16.1 | 22.5 | 0.00 | 0.00 | 0.00 | 94 | 1014.0 |
| 20260906091259 | 24 | 145 | 16.1 | 24.1 | 0.00 | 0.00 | 0.00 | 94 | 1014.0 |
| 20260906090755 | 24 | 147 | 14.5 | 27.4 | 0.00 | 0.00 | 0.00 | 94 | 1014.1 |
| 20260906090254 | 24 | 138 | 16.1 | 20.9 | 0.00 | 0.00 | 0.00 | 95 | 1014.1 |
| 20260906085748 | 23 | 138 | 17.7 | 20.9 | 0.00 | 0.00 | 0.00 | 95 | 1014.5 |
| 20260906085247 | 23 | 161 | 9.7 | 16.1 | 0.00 | 0.00 | 0.00 | 95 | 1014.3 |
| 20260906084742 | 23 | 148 | 11.3 | 16.1 | 0.00 | 0.00 | 0.00 | 95 | 1014.7 |
| 20260906084241 | 23 | 157 | 6.4 | 19.3 | 0.00 | 0.00 | 0.00 | 95 | 1014.8 |
| 20260906083737 | 23 | 141 | 11.3 | 14.5 | 0.00 | 0.00 | 0.00 | 95 | 1014.9 |
| 20260906083232 | 23 | 139 | 12.9 | 16.1 | 0.00 | 0.00 | 0.00 | 95 | 1014.9 |
| 20260906082727 | 23 | 150 | 9.7 | 14.5 | 0.00 | 0.00 | 0.00 | 95 | 1015.0 |
| 20260906082222 | 23 | 156 | 9.7 | 14.5 | 0.00 | 0.00 | 0.00 | 95 | 1015.3 |
| 20260906081718 | 23 | 142 | 12.9 | 14.5 | 0.00 | 0.00 | 0.00 | 95 | 1015.2 |
| 20260906081213 | 23 | 150 | 6.4 | 14.5 | 0.00 | 0.00 | 0.00 | 94 | 1015.1 |
| 20260906080710 | 23 | 149 | 12.9 | 16.1 | 0.00 | 0.00 | 0.00 | 94 | 1015.1 |
| 20260906080206 | 23 | 144 | 9.7 | 16.1 | 0.00 | 0.00 | 0.00 | 94 | 1014.9 |
| 20260906075705 | 23 | 139 | 17.7 | 17.7 | 0.00 | 0.00 | 0.00 | 94 | 1014.9 |
| 20260906075200 | 23 | 153 | 9.7 | 19.3 | 0.00 | 0.00 | 0.00 | 94 | 1014.7 |
| 20260906074655 | 23 | 154 | 6.4 | 19.3 | 0.00 | 0.00 | 0.00 | 94 | 1014.8 |
| 20260906074154 | 23 | 143 | 11.3 | 17.7 | 0.00 | 0.00 | 0.00 | 94 | 1014.7 |
| 20260906073649 | 23 | 167 | 9.7 | 20.9 | 0.00 | 0.00 | 0.00 | 94 | 1014.8 |
| 20260906073145 | 23 | 136 | 14.5 | 17.7 | 0.00 | 0.00 | 0.00 | 94 | 1014.7 |
| 20260906072640 | 23 | 144 | 9.7 | 12.9 | 0.00 | 0.00 | 0.00 | 94 | 1014.8 |
| 20260906072136 | 23 | 153 | 9.7 | 11.3 | 0.00 | 0.00 | 0.00 | 94 | 1015.0 |
| 20260906071632 | 23 | 147 | 9.7 | 11.3 | 0.00 | 0.00 | 0.00 | 94 | 1014.9 |
| 20260906071132 | 23 | 148 | 9.7 | 12.9 | 0.00 | 0.00 | 0.00 | 94 | 1015.2 |
| 20260906070629 | 23 | 149 | 9.7 | 14.5 | 0.00 | 0.00 | 0.00 | 93 | 1014.9 |
| 20260906070124 | 23 | 135 | 11.3 | 12.9 | 0.00 | 0.00 | 0.00 | 93 | 1015.0 |
| 20260906065624 | 23 | 145 | 8.0 | 11.3 | 0.00 | 0.00 | 0.00 | 93 | 1014.9 |
| 20260906065119 | 23 | 146 | 8.0 | 14.5 | 0.00 | 0.00 | 0.00 | 93 | 1014.9 |
| 20260906064614 | 23 | 155 | 9.7 | 16.1 | 0.00 | 0.00 | 0.00 | 93 | 1015.0 |
| 20260906064109 | 23 | 143 | 9.7 | 17.7 | 0.00 | 0.00 | 0.00 | 93 | 1015.2 |
| 20260906063605 | 23 | 143 | 11.3 | 16.1 | 0.00 | 0.00 | 0.00 | 92 | 1015.0 |
| 20260906063101 | 23 | 149 | 8.0 | 16.1 | 0.00 | 0.00 | 0.00 | 92 | 1015.0 |
| 20260906062556 | 23 | 144 | 8.0 | 16.1 | 0.00 | 0.00 | 0.00 | 91 | 1014.9 |
| 20260906062055 | 23 | 140 | 12.9 | 16.1 | 0.00 | 0.00 | 0.00 | 91 | 1015.1 |
| 20260906061551 | 23 | 128 | 12.9 | 16.1 | 0.00 | 0.00 | 0.00 | 91 | 1015.1 |
| 20260906061050 | 23 | 120 | 6.4 | 14.5 | 0.00 | 0.00 | 0.00 | 91 | 1015.0 |
| 20260906060547 | 23 | 134 | 12.9 | 17.7 | 0.00 | 0.00 | 0.00 | 91 | 1015.0 |
| 20260906060044 | 23 | 145 | 9.7 | 19.3 | 0.00 | 0.00 | 0.00 | 91 | 1014.8 |
| 20260906055540 | 23 | 141 | 8.0 | 16.1 | 0.00 | 0.00 | 0.00 | 91 | 1014.8 |
| 20260906055035 | 23 | 309 | 3.2 | 14.5 | 0.00 | 0.00 | 0.00 | 90 | 1014.9 |
| 20260906054535 | 23 | 141 | 6.4 | 14.5 | 0.00 | 0.00 | 0.00 | 90 | 1014.8 |
| 20260906054030 | 23 | 138 | 9.7 | 11.3 | 0.00 | 0.00 | 0.00 | 90 | 1014.7 |
| 20260906053527 | 23 | 143 | 8.0 | 11.3 | 0.00 | 0.00 | 0.00 | 90 | 1014.9 |
| 20260906053022 | 23 | 139 | 11.3 | 12.9 | 0.00 | 0.00 | 0.00 | 90 | 1014.7 |
| 20260906052518 | 23 | 143 | 6.4 | 11.3 | 0.00 | 0.00 | 0.00 | 89 | 1014.8 |
| 20260906052015 | 23 | 148 | 4.8 | 11.3 | 0.00 | 0.00 | 0.00 | 89 | 1014.8 |
| 20260906051510 | 23 | 148 | 8.0 | 11.3 | 0.00 | 0.00 | 0.00 | 88 | 1014.8 |
| 20260906051005 | 23 | 142 | 8.0 | 12.9 | 0.00 | 0.00 | 0.00 | 88 | 1014.8 |
| 20260906050500 | 23 | 140 | 6.4 | 8.0 | 0.00 | 0.00 | 0.00 | 88 | 1014.7 |
| 20260906045959 | 23 | 137 | 9.7 | 11.3 | 0.00 | 2.62 | 2.62 | 88 | 1014.8 |
| 20260906045458 | 24 | 138 | 8.0 | 12.9 | 0.00 | 2.62 | 2.62 | 87 | 1014.7 |
| 20260906044954 | 24 | 141 | 9.7 | 12.9 | 0.00 | 2.62 | 2.62 | 87 | 1014.7 |
| 20260906044449 | 24 | 142 | 11.3 | 17.7 | 0.00 | 2.62 | 2.62 | 86 | 1014.9 |
| 20260906043945 | 24 | 153 | 8.0 | 16.1 | 0.00 | 2.62 | 2.62 | 86 | 1014.9 |
| 20260906043441 | 24 | 146 | 8.0 | 14.5 | 0.00 | 2.62 | 2.62 | 86 | 1014.8 |
| 20260906042936 | 24 | 145 | 8.0 | 12.9 | 0.00 | 2.62 | 2.62 | 85 | 1015.0 |
| 20260906042435 | 25 | 136 | 11.3 | 12.9 | 0.00 | 2.62 | 2.62 | 84 | 1015.0 |
| 20260906041930 | 25 | 136 | 8.0 | 14.5 | 0.00 | 2.62 | 2.62 | 84 | 1015.0 |
| 20260906041427 | 25 | 133 | 9.7 | 12.9 | 0.00 | 2.62 | 2.62 | 83 | 1015.1 |
| 20260906040926 | 25 | 141 | 9.7 | 17.7 | 0.00 | 2.62 | 2.62 | 83 | 1015.1 |
| 20260906040421 | 25 | 137 | 11.3 | 16.1 | 0.00 | 2.62 | 2.62 | 83 | 1014.8 |
| 20260906035916 | 25 | 133 | 11.3 | 16.1 | 0.00 | 2.62 | 2.62 | 82 | 1015.1 |
| 20260906035413 | 25 | 139 | 12.9 | 16.1 | 0.00 | 2.62 | 2.62 | 82 | 1014.9 |
| 20260906034908 | 25 | 135 | 16.1 | 17.7 | 0.00 | 2.62 | 2.62 | 81 | 1015.0 |
| 20260906034408 | 25 | 134 | 14.5 | 20.9 | 0.00 | 2.62 | 2.62 | 80 | 1015.1 |
| 20260906033903 | 25 | 137 | 12.9 | 22.5 | 0.00 | 2.62 | 2.62 | 79 | 1015.1 |
| 20260906033403 | 25 | 137 | 14.5 | 19.3 | 0.00 | 2.62 | 2.62 | 79 | 1015.0 |
| 20260906032859 | 26 | 136 | 17.7 | 20.9 | 0.00 | 2.62 | 2.62 | 78 | 1015.0 |
| 20260906032355 | 26 | 131 | 17.7 | 20.9 | 0.00 | 2.62 | 2.62 | 78 | 1015.3 |
| 20260906031850 | 26 | 143 | 14.5 | 24.1 | 0.00 | 2.62 | 2.62 | 77 | 1015.4 |
| 20260906031345 | 26 | 132 | 12.9 | 22.5 | 0.00 | 2.62 | 2.62 | 77 | 1015.1 |
| 20260906030845 | 26 | 138 | 17.7 | 22.5 | 0.00 | 2.62 | 2.62 | 77 | 1015.1 |
| 20260906030340 | 26 | 136 | 14.5 | 19.3 | 0.00 | 2.62 | 2.62 | 76 | 1015.3 |
| 20260906025834 | 26 | 149 | 17.7 | 17.7 | 0.00 | 2.62 | 2.62 | 76 | 1015.4 |
| 20260906025328 | 26 | 144 | 12.9 | 17.7 | 0.00 | 2.62 | 2.62 | 77 | 1015.4 |
| 20260906024827 | 26 | 137 | 9.7 | 19.3 | 0.00 | 2.62 | 2.62 | 76 | 1015.4 |
| 20260906024321 | 26 | 139 | 11.3 | 16.1 | 0.00 | 2.62 | 2.62 | 76 | 1015.2 |
| 20260906023817 | 26 | 136 | 11.3 | 17.7 | 0.00 | 2.62 | 2.62 | 76 | 1015.1 |
| 20260906023313 | 26 | 148 | 14.5 | 19.3 | 0.00 | 2.62 | 2.62 | 75 | 1015.2 |
| 20260906022808 | 26 | 138 | 14.5 | 17.7 | 0.00 | 2.62 | 2.62 | 75 | 1015.2 |
| 20260906022306 | 26 | 135 | 8.0 | 17.7 | 0.00 | 2.62 | 2.62 | 75 | 1015.0 |
| 20260906021759 | 26 | 136 | 12.9 | 20.9 | 0.00 | 2.62 | 2.62 | 74 | 1014.9 |
| 20260906021257 | 26 | 136 | 17.7 | 20.9 | 0.00 | 2.62 | 2.62 | 73 | 1014.8 |
| 20260906020752 | 26 | 138 | 14.5 | 19.3 | 0.00 | 2.62 | 2.62 | 73 | 1014.6 |
| 20260906020246 | 26 | 141 | 12.9 | 20.9 | 0.00 | 2.62 | 2.62 | 73 | 1014.3 |
| 20260906015741 | 27 | 134 | 12.9 | 20.9 | 0.00 | 2.62 | 2.62 | 72 | 1014.8 |
| 20260906015239 | 27 | 128 | 12.9 | 19.3 | 0.00 | 2.62 | 2.62 | 72 | 1014.6 |
| 20260906014734 | 27 | 139 | 9.7 | 16.1 | 0.00 | 2.62 | 2.62 | 72 | 1014.6 |
| 20260906014230 | 27 | 140 | 16.1 | 19.3 | 0.00 | 2.62 | 2.62 | 71 | 1014.3 |
| 20260906013720 | 27 | 138 | 17.7 | 19.3 | 0.00 | 2.62 | 2.62 | 71 | 1014.3 |
| 20260906013220 | 27 | 141 | 14.5 | 16.1 | 0.00 | 2.62 | 2.62 | 71 | 1014.2 |
| 20260906012716 | 27 | 137 | 9.7 | 17.7 | 0.00 | 2.62 | 2.62 | 71 | 1014.1 |
| 20260906012215 | 28 | 139 | 12.9 | 20.9 | 0.00 | 2.62 | 2.62 | 70 | 1014.2 |
| 20260906011711 | 28 | 137 | 12.9 | 17.7 | 0.00 | 2.62 | 2.62 | 71 | 1014.1 |
| 20260906011206 | 28 | 138 | 12.9 | 20.9 | 0.00 | 2.62 | 2.62 | 70 | 1013.9 |
| 20260906010701 | 28 | 137 | 12.9 | 14.5 | 0.00 | 2.62 | 2.62 | 70 | 1014.0 |
| 20260906010157 | 28 | 144 | 9.7 | 14.5 | 0.00 | 2.62 | 2.62 | 69 | 1014.0 |
| 20260906005656 | 28 | 139 | 14.5 | 16.1 | 0.00 | 2.62 | 2.62 | 69 | 1013.9 |
| 20260906005156 | 28 | 140 | 11.3 | 14.5 | 0.00 | 2.62 | 2.62 | 69 | 1013.7 |
| 20260906004655 | 29 | 137 | 12.9 | 16.1 | 0.00 | 2.62 | 2.62 | 67 | 1013.7 |
| 20260906004150 | 30 | 144 | 12.9 | 20.9 | 0.00 | 2.62 | 2.62 | 66 | 1013.7 |
| 20260906003646 | 29 | 141 | 11.3 | 16.1 | 0.00 | 2.62 | 2.62 | 68 | 1013.8 |
| 20260906003142 | 30 | 146 | 12.9 | 16.1 | 0.00 | 2.62 | 2.62 | 67 | 1013.8 |
| 20260906002642 | 29 | 145 | 9.7 | 12.9 | 0.00 | 2.62 | 2.62 | 68 | 1013.7 |
| 20260906002136 | 29 | 145 | 11.3 | 12.9 | 0.00 | 2.62 | 2.62 | 68 | 1013.5 |
| 20260906001632 | 29 | 143 | 9.7 | 9.7 | 0.00 | 2.62 | 2.62 | 69 | 1013.5 |
| 20260906001131 | 30 | 150 | 3.2 | 9.7 | 0.00 | 2.62 | 2.62 | 69 | 1013.6 |
| 20260906000627 | 30 | 137 | 12.9 | 12.9 | 0.00 | 2.62 | 2.62 | 68 | 1013.5 |
| 20260906000123 | 30 | 142 | 8.0 | 14.5 | 0.00 | 2.62 | 2.62 | 66 | 1013.5 |
| 20260905235621 | 30 | 155 | 4.8 | 6.4 | 0.00 | 2.62 | 2.62 | 68 | 1013.5 |
| 20260905235117 | 30 | 175 | 3.2 | 8.0 | 0.00 | 2.62 | 2.62 | 67 | 1013.4 |
| 20260905234612 | 30 | 152 | 6.4 | 6.4 | 0.00 | 2.62 | 2.62 | 67 | 1013.2 |
| 20260905234108 | 30 | 162 | 3.2 | 8.0 | 0.00 | 2.62 | 2.62 | 67 | 1013.4 |
| 20260905233608 | 30 | 171 | 1.6 | 8.0 | 0.00 | 2.62 | 2.62 | 66 | 1013.5 |
| 20260905233102 | 30 | 182 | 1.6 | 6.4 | 0.00 | 2.62 | 2.62 | 67 | 1013.4 |
| 20260905232557 | 30 | 157 | 8.0 | 9.7 | 0.00 | 2.62 | 2.62 | 65 | 1013.4 |
| 20260905232053 | 30 | 169 | 4.8 | 8.0 | 0.00 | 2.62 | 2.62 | 65 | 1013.3 |
| 20260905231548 | 31 | 149 | 8.0 | 12.9 | 0.00 | 2.62 | 2.62 | 64 | 1013.3 |
| 20260905231044 | 31 | 165 | 3.2 | 6.4 | 0.00 | 2.62 | 2.62 | 66 | 1013.4 |
| 20260905230543 | 31 | 269 | 0.0 | 3.2 | 0.00 | 2.62 | 2.62 | 64 | 1013.4 |
| 20260905230042 | 31 | 283 | 0.0 | 6.4 | 0.00 | 2.62 | 2.62 | 62 | 1013.4 |
| 20260905225537 | 31 | 118 | 4.8 | 4.8 | 0.00 | 2.62 | 2.62 | 63 | 1013.3 |
| 20260905225032 | 31 | 144 | 4.8 | 6.4 | 0.00 | 2.62 | 2.62 | 62 | 1013.3 |
| 20260905224526 | 31 | 180 | 0.0 | 4.8 | 0.00 | 2.62 | 2.62 | 61 | 1013.2 |
| 20260905224026 | 32 | 222 | 3.2 | 3.2 | 0.00 | 2.62 | 2.62 | 60 | 1013.3 |
| 20260905223525 | 32 | 169 | 3.2 | 4.8 | 0.00 | 2.62 | 2.62 | 58 | 1013.2 |
| 20260905223020 | 32 | 327 | 1.6 | 4.8 | 0.00 | 2.62 | 2.62 | 58 | 1013.2 |
| 20260905222520 | 32 | 250 | 1.6 | 4.8 | 0.00 | 2.62 | 2.62 | 57 | 1013.1 |
| 20260905222015 | 32 | 222 | 1.6 | 11.3 | 0.00 | 2.62 | 2.62 | 58 | 1013.3 |
| 20260905221511 | 33 | 107 | 3.2 | 6.4 | 0.00 | 2.62 | 2.62 | 55 | 1013.2 |
| 20260905221007 | 32 | 146 | 6.4 | 22.5 | 0.00 | 2.62 | 2.62 | 57 | 1013.3 |
| 20260905220503 | 33 | 346 | 1.6 | 8.0 | 0.00 | 2.62 | 2.62 | 55 | 1013.3 |
| 20260905220002 | 33 | 328 | 3.2 | 6.4 | 0.00 | 2.62 | 2.62 | 54 | 1013.1 |
| 20260905215457 | 33 | 142 | 8.0 | 8.0 | 0.00 | 2.62 | 2.62 | 53 | 1013.4 |
| 20260905214954 | 33 | 200 | 0.0 | 4.8 | 0.00 | 2.62 | 2.62 | 56 | 1013.2 |
| 20260905214449 | 33 | 117 | 3.2 | 4.8 | 0.00 | 2.62 | 2.62 | 51 | 1013.1 |
| 20260905213949 | 32 | 162 | 4.8 | 14.5 | 0.00 | 2.62 | 2.62 | 55 | 1013.2 |
| 20260905213445 | 32 | 104 | 4.8 | 8.0 | 0.00 | 2.62 | 2.62 | 53 | 1013.1 |
| 20260905212940 | 32 | 135 | 6.4 | 11.3 | 0.00 | 2.62 | 2.62 | 55 | 1013.0 |
| 20260905212435 | 33 | 344 | 3.2 | 6.4 | 0.00 | 2.62 | 2.62 | 51 | 1013.0 |
| 20260905211934 | 33 | 99 | 4.8 | 6.4 | 0.00 | 2.62 | 2.62 | 51 | 1012.9 |
| 20260905211430 | 33 | 290 | 3.2 | 8.0 | 0.00 | 2.62 | 2.62 | 51 | 1012.9 |
| 20260905210926 | 33 | 98 | 3.2 | 8.0 | 0.00 | 2.62 | 2.62 | 50 | 1012.8 |
| 20260905210420 | 33 | 142 | 14.5 | 16.1 | 0.00 | 2.62 | 2.62 | 49 | 1012.8 |
| 20260905205920 | 33 | 255 | 0.0 | 9.7 | 0.00 | 2.62 | 2.62 | 52 | 1012.9 |
| 20260905205415 | 33 | 324 | 3.2 | 16.1 | 0.00 | 2.62 | 2.62 | 51 | 1012.9 |
| 20260905204913 | 33 | 310 | 3.2 | 4.8 | 0.00 | 2.62 | 2.62 | 50 | 1012.9 |
| 20260905204410 | 33 | 137 | 6.4 | 9.7 | 0.00 | 2.62 | 2.62 | 53 | 1012.9 |
| 20260905203909 | 32 | 175 | 3.2 | 9.7 | 0.00 | 2.62 | 2.62 | 54 | 1012.7 |
| 20260905203404 | 32 | 151 | 8.0 | 9.7 | 0.00 | 2.62 | 2.62 | 62 | 1012.7 |
| 20260905202900 | 32 | 150 | 6.4 | 14.5 | 0.00 | 2.62 | 2.62 | 58 | 1012.7 |
| 20260905202354 | 32 | 131 | 8.0 | 9.7 | 0.00 | 2.62 | 2.62 | 58 | 1012.9 |
| 20260905201850 | 32 | 140 | 9.7 | 14.5 | 0.00 | 2.62 | 2.62 | 59 | 1012.9 |
| 20260905201346 | 32 | 131 | 6.4 | 19.3 | 0.00 | 2.62 | 2.62 | 57 | 1012.9 |
| 20260905200839 | 32 | 160 | 3.2 | 6.4 | 0.00 | 2.62 | 2.62 | 55 | 1012.7 |
| 20260905200336 | 32 | 153 | 8.0 | 16.1 | 0.00 | 2.62 | 2.62 | 56 | 1012.6 |
| 20260905195834 | 32 | 141 | 4.8 | 14.5 | 0.00 | 2.62 | 2.62 | 57 | 1012.5 |